Regional Weather Roundup
Issued by NWS

Home | Current Version | Previous Version | Graphics & Text | Print | Product List | Glossary On
Versions: 1 2 3 4 5 6 7 8 9 10 11 12 13 14 15 16 17 18 19 20 21 22 23 24 25 26 27 28 29 30 31 32 33 34 35 36 37 38 39 40 41 42 43 44 45 46 47 48 49 50
000
ASUS43 KFSD 131602
RWRSD

WEATHER ROUNDUP FOR SOUTH DAKOTA
NATIONAL WEATHER SERVICE SIOUX FALLS SD
1000 AM CST WED DEC 13 2017

NOTE: "FAIR" INDICATES FEW OR NO CLOUDS BELOW 12,000 FEET WITH NO
SIGNIFICANT WEATHER AND/OR OBSTRUCTIONS TO VISIBILITY.


SDZ001>005-009-010-012>017-131700-
NORTHWEST AND NORTH CENTRAL SOUTH DAKOTA

CITY           SKY/WX    TMP DP  RH WIND       PRES   REMARKS
BUFFALO          N/A     36  25  64 NW23G33   29.99R
FAITH            N/A     37  26  64 NW32G44   29.97R
MOBRIDGE       SUNNY     39  29  67 NW22G31   29.86R
$$

SDZ012>016-024>037-041>051-057-063-072>074-131700-
SOUTHWEST AND SOUTH CENTRAL SOUTH DAKOTA

CITY           SKY/WX    TMP DP  RH WIND       PRES   REMARKS
RAPID CTY ARPT SUNNY     42  21  43 NW35G44   30.03R
PIERRE         SUNNY     40  29  64 NW28G35   29.91R
CUSTER         CLOUDY    37  11  34 NW12G23   30.02R
ELLSWORTH AFB  SUNNY     42  20  42 NW30G44   30.02R
PHILIP         SUNNY     41  26  55 NW30G39   29.99R
PINE RIDGE     SUNNY     37  19  48 NW9       30.05R
SPEARFISH      FAIR      37  18  44 W20G26    30.10S
WINNER         FAIR      43  26  51 NW32G39   29.92R
$$

SDZ004>011-016>023-039-040-131700-
NORTHEAST SOUTH DAKOTA

CITY           SKY/WX    TMP DP  RH WIND       PRES   REMARKS
ABERDEEN       CLOUDY    37  31  78 N17       29.81R
WATERTOWN      CLOUDY    34  30  85 NW23G35   29.71R WCI  22
SISSETON         N/A     34  30  85 N25G35    29.73R WCI  21
$$

SDZ017-020-022-023-036>040-048>070-131700-
SOUTHEAST SOUTH DAKOTA

CITY           SKY/WX    TMP DP  RH WIND       PRES   REMARKS
SIOUX FALLS    CLOUDY    39  32  76 NW28G38   29.73R
HURON          CLOUDY    38  30  73 N22G36    29.81R
CHAMBERLAIN    SUNNY     43  30  59 NW28G36   29.88R
MITCHELL       CLOUDY    41  30  65 N33G45    29.82R
YANKTON        MOSUNNY   43  30  60 NW31      29.79R
$$

ABBREVIATIONS USED IN REMARKS
   TC - TEMPERATURE IN CELSIUS
  WCI - WIND CHILL INDEX
   HX - HEAT INDEX
  VSB - VISIBILITY





USA.gov is the U.S. government's official web portal to all federal, state and local government web resources and services.